Weather History for Montgomery, NY

Change the Weather History Date:

Saturday, April 6, 2013

  Actual Average (KPOU) Record (KPOU)
Temperature  
Mean Temperature 40 °F 45 °F  
Max Temperature 52 °F 57 °F 78 °F (2010)
Min Temperature 30 °F 33 °F 18 °F (1982)
Degree Days  
Heating Degree Days 24 20  
Month to date heating degree days 126  
Since 1 July heating degree days 5571  
Cooling Degree Days 0 0  
Month to date cooling degree days 0  
Year to date cooling degree days 0  
Moisture  
Dew Point 10 °F    
Average Humidity 33    
Maximum Humidity 54    
Minimum Humidity 12    
Precipitation  
Precipitation 0.00 in 0.12 in 1.32 in (1958)
Month to date precipitation 0.76  
Year to date precipitation 10.07  
Sea Level Pressure  
Sea Level Pressure 30.21 in    
Wind  
Wind Speed 7 mph (NNW)    
Max Wind Speed 10 mph    
Max Gust Speed 17 mph    
Visibility 10 miles    
Events      
T = Trace of Precipitation, MM = Missing Value Source: NWS Daily Summary

Daily Weather History Graph

Daily Weather History Graph

Search for Another Location

Airport:

Trip Planner

Search our weather history database for the weather conditions in past years. The results will help you decide how hot, cold, wet, or windy it might be!

Date:

Astronomy

Apr. 06, 2013 Rise Set
Actual Time 6:31 AM EDT 7:28 PM EDT
Civil Twilight 6:03 AM EDT 7:56 PM EDT
Nautical Twilight 5:29 AM EDT 8:29 PM EDT
Astronomical Twilight 4:54 AM EDT 9:04 PM EDT
Moon 4:16 AM EDT (4/6) 3:51 PM EDT (4/6)
Length of Visible Light 13h 53m
Length of Day
12h 56m
Waning Crescent, 15% of the Moon is Illuminated
Apr 6
Waning Crescent
Apr 10
New
Apr 18
First Quarter
Apr 25
Full
May 2
Last Quarter

Hourly Weather History & Observations

Time (EDT) Temp. Windchill Dew Point Humidity Pressure Visibility Wind Dir Wind Speed Gust Speed Precip Events Conditions
12:54 AM 36.0 °F 29.0 °F 14.0 °F 41% 30.02 in 10.0 mi NW 9.2 mph - N/A   Clear
1:54 AM 35.1 °F 27.9 °F 14.0 °F 42% 30.04 in 10.0 mi WNW 9.2 mph - N/A   Clear
2:54 AM 34.0 °F 26.0 °F 15.1 °F 46% 30.06 in 10.0 mi WNW 10.4 mph - N/A   Clear
3:54 AM 33.1 °F 26.1 °F 16.0 °F 50% 30.08 in 10.0 mi NW 8.1 mph - N/A   Clear
4:54 AM 33.1 °F 26.1 °F 17.1 °F 52% 30.11 in 10.0 mi WNW 8.1 mph - N/A   Clear
5:54 AM 34.0 °F 28.8 °F 15.1 °F 46% 30.15 in 10.0 mi North 5.8 mph 17.3 mph N/A   Clear
6:54 AM 30.9 °F 25.2 °F 10.9 °F 43% 30.19 in 10.0 mi North 5.8 mph - N/A   Clear
7:54 AM 35.1 °F 30.1 °F 10.9 °F 37% 30.22 in 10.0 mi NNE 5.8 mph - N/A   Clear
8:54 AM 37.0 °F 31.0 °F 10.9 °F 34% 30.25 in 10.0 mi NNE 8.1 mph - N/A   Clear
9:54 AM 37.0 °F 31.0 °F 8.1 °F 30% 30.27 in 10.0 mi ENE 8.1 mph - N/A   Clear
10:54 AM 41.0 °F 34.7 °F 7.0 °F 25% 30.28 in 10.0 mi ENE 10.4 mph - N/A   Clear
11:54 AM 43.0 °F 37.2 °F 3.9 °F 20% 30.27 in 10.0 mi North 10.4 mph - N/A   Clear
12:54 PM 46.0 °F 43.1 °F 1.0 °F 16% 30.26 in 10.0 mi Variable 5.8 mph - N/A   Clear
1:54 PM 48.9 °F - 1.0 °F 14% 30.24 in 10.0 mi North 9.2 mph - N/A   Clear
2:54 PM 48.9 °F - -0.0 °F 13% 30.24 in 10.0 mi SSE 4.6 mph - N/A   Clear
3:54 PM 51.1 °F - 1.0 °F 13% 30.22 in 10.0 mi WSW 5.8 mph - N/A   Clear
4:54 PM 51.1 °F - -0.0 °F 12% 30.22 in 10.0 mi Variable 3.5 mph - N/A   Clear
5:54 PM 51.1 °F - 1.0 °F 13% 30.23 in 10.0 mi Variable 5.8 mph - N/A   Clear
6:54 PM 48.9 °F - 3.9 °F 16% 30.25 in 10.0 mi South 5.8 mph - N/A   Clear
7:54 PM 46.0 °F 44.8 °F 6.1 °F 20% 30.25 in 10.0 mi South 3.5 mph - N/A   Clear
8:54 PM 39.9 °F - 21.0 °F 47% 30.27 in 10.0 mi Calm Calm - N/A   Clear
9:54 PM 35.1 °F - 19.9 °F 54% 30.27 in 10.0 mi Calm Calm - N/A   Clear
10:54 PM 35.1 °F - 17.1 °F 48% 30.27 in 10.0 mi Calm Calm - N/A   Clear
11:54 PM 34.0 °F - 17.1 °F 50% 30.27 in 10.0 mi Calm Calm - N/A   Clear